Douglas, GA

2:08 AM EDT on August 19, 2017 (GMT -0400)
Douglas Municipal

Weather History for KDQH - December, 2012

Change the Weather History Date:

Friday, December 21, 2012

  Actual Average Record
Temperature  
Mean Temperature 47 °F -  
Max Temperature 53 °F 62 °F 82 °F (1967)
Min Temperature 41 °F 39 °F 12 °F (1981)
Degree Days  
Heating Degree Days 18    
Moisture  
Dew Point 25 °F    
Average Humidity 46    
Maximum Humidity 66    
Minimum Humidity 28    
Precipitation  
Precipitation 0.00 in - - ()
Sea Level Pressure  
Sea Level Pressure 30.08 in    
Wind  
Wind Speed 13 mph (WNW)    
Max Wind Speed 21 mph    
Max Gust Speed 31 mph    
Visibility 10 miles    
Events      
Averages and records for this station are not official NWS values.
T = Trace of Precipitation, MM = Missing Value Source: NWS Daily Summary

Daily Weather History Graph

Daily Weather History Graph

Search for Another Location

Airport or City:

Trip Planner

Search our weather history database for the weather conditions in past years. The results will help you decide how hot, cold, wet, or windy it might be!

Date:

Astronomy

Dec. 21, 2012 Rise Set
Actual Time 7:26 AM EST 5:32 PM EST
Civil Twilight 7:00 AM EST 5:59 PM EST
Nautical Twilight 6:29 AM EST 6:30 PM EST
Astronomical Twilight 5:59 AM EST 6:59 PM EST
Moon 1:05 PM EST (12/21) 1:28 AM EST (12/21)
Length of Visible Light 10h 59m
Length of Day
10h 05m
Waxing Gibbous, 64% of the Moon is Illuminated
Dec 21
Waxing Gibbous
Dec 28
Full
Jan 4
Last Quarter
Jan 11
New
Jan 18
First Quarter

Hourly Weather History & Observations

Time (EST) Temp. Windchill Dew Point Humidity Pressure Visibility Wind Dir Wind Speed Gust Speed Precip Events Conditions
12:15 AM 50.0 °F - 35.6 °F 58% 29.98 in 10.0 mi WNW 15.0 mph 19.6 mph N/A   Clear
12:35 AM 50.0 °F - 33.8 °F 54% 29.99 in 10.0 mi WNW 12.7 mph 24.2 mph N/A   Clear
12:55 AM 48.2 °F - 32.0 °F 54% 30.00 in 10.0 mi WNW 15.0 mph - N/A   Clear
1:15 AM 46.4 °F 41.5 °F 32.0 °F 57% 30.00 in 10.0 mi WNW 10.4 mph 17.3 mph N/A   Clear
1:35 AM 46.4 °F 41.9 °F 32.0 °F 57% 30.00 in 10.0 mi WNW 9.2 mph - N/A   Clear
1:55 AM 46.4 °F 41.5 °F 33.8 °F 62% 30.01 in 10.0 mi WNW 10.4 mph 18.4 mph N/A   Clear
2:15 AM 46.4 °F 41.1 °F 32.0 °F 57% 30.01 in 10.0 mi WNW 11.5 mph 24.2 mph N/A   Clear
2:35 AM 44.6 °F 39.7 °F 32.0 °F 61% 30.01 in 10.0 mi WNW 9.2 mph 18.4 mph N/A   Clear
2:55 AM 44.6 °F 38.8 °F 32.0 °F 61% 30.01 in 10.0 mi West 11.5 mph 18.4 mph N/A   Clear
3:15 AM 44.6 °F 38.8 °F 32.0 °F 61% 30.01 in 10.0 mi West 11.5 mph 18.4 mph N/A   Clear
3:35 AM 44.6 °F 38.4 °F 32.0 °F 61% 30.01 in 10.0 mi West 12.7 mph 17.3 mph N/A   Clear
3:55 AM 42.8 °F 36.6 °F 32.0 °F 66% 30.01 in 10.0 mi WNW 11.5 mph 17.3 mph N/A   Clear
4:15 AM 42.8 °F 37.0 °F 32.0 °F 66% 30.02 in 10.0 mi WNW 10.4 mph 23.0 mph N/A   Clear
4:35 AM 42.8 °F 36.6 °F 32.0 °F 66% 30.02 in 10.0 mi WNW 11.5 mph 21.9 mph N/A   Clear
4:55 AM 42.8 °F 35.4 °F 32.0 °F 66% 30.02 in 10.0 mi WNW 15.0 mph 19.6 mph N/A   Clear
5:15 AM 42.8 °F 36.6 °F 32.0 °F 66% 30.03 in 10.0 mi West 11.5 mph 17.3 mph N/A   Clear
5:35 AM 42.8 °F 34.3 °F 30.2 °F 61% 30.03 in 10.0 mi West 19.6 mph 25.3 mph N/A   Clear
5:55 AM 41.0 °F 34.3 °F 30.2 °F 65% 30.04 in 10.0 mi West 11.5 mph 19.6 mph N/A   Clear
6:35 AM 41.0 °F 33.9 °F 28.4 °F 61% 30.05 in 10.0 mi WNW 12.7 mph 20.7 mph N/A   Clear
6:55 AM 41.0 °F 34.7 °F 28.4 °F 61% 30.06 in 10.0 mi WNW 10.4 mph 19.6 mph N/A   Clear
7:15 AM 41.0 °F 33.5 °F 28.4 °F 61% 30.06 in 10.0 mi West 13.8 mph 23.0 mph N/A   Clear
7:35 AM 41.0 °F 34.3 °F 26.6 °F 57% 30.07 in 10.0 mi West 11.5 mph 23.0 mph N/A   Clear
7:55 AM 41.0 °F 34.7 °F 26.6 °F 57% 30.08 in 10.0 mi West 10.4 mph - N/A   Clear
8:15 AM 41.0 °F 33.5 °F 26.6 °F 57% 30.08 in 10.0 mi West 13.8 mph 19.6 mph N/A   Clear
8:35 AM 41.0 °F 33.9 °F 26.6 °F 57% 30.09 in 10.0 mi West 12.7 mph 19.6 mph N/A   Clear
8:55 AM 41.0 °F 31.9 °F 26.6 °F 57% 30.09 in 10.0 mi West 19.6 mph 25.3 mph N/A   Clear
9:15 AM 42.8 °F 35.4 °F 26.6 °F 53% 30.10 in 10.0 mi WNW 15.0 mph 26.5 mph N/A   Clear
9:35 AM 42.8 °F 34.0 °F 24.8 °F 49% 30.10 in 10.0 mi WNW 20.7 mph 24.2 mph N/A   Clear
9:55 AM 42.8 °F 34.8 °F 24.8 °F 49% 30.11 in 10.0 mi WNW 17.3 mph 25.3 mph N/A   Clear
10:15 AM 44.6 °F 37.4 °F 24.8 °F 46% 30.12 in 10.0 mi WNW 16.1 mph 25.3 mph N/A   Clear
10:35 AM 44.6 °F 38.4 °F 23.0 °F 43% 30.12 in 10.0 mi WNW 12.7 mph 26.5 mph N/A   Clear
10:55 AM 46.4 °F 39.8 °F 23.0 °F 40% 30.12 in 10.0 mi WNW 16.1 mph 27.6 mph N/A   Clear
11:15 AM 46.4 °F 39.8 °F 21.2 °F 37% 30.11 in 10.0 mi NW 16.1 mph 27.6 mph N/A   Clear
11:35 AM 46.4 °F 40.4 °F 23.0 °F 40% 30.10 in 10.0 mi WNW 13.8 mph 24.2 mph N/A   Clear
11:55 AM 48.2 °F - 23.0 °F 37% 30.10 in 10.0 mi WNW 15.0 mph 21.9 mph N/A   Clear
12:15 PM 48.2 °F - 21.2 °F 34% 30.09 in 10.0 mi WNW 18.4 mph 27.6 mph N/A   Clear
12:35 PM 50.0 °F - 21.2 °F 32% 30.08 in 10.0 mi NW 13.8 mph 27.6 mph N/A   Clear
12:55 PM 50.0 °F - 21.2 °F 32% 30.07 in 10.0 mi WNW 16.1 mph 26.5 mph N/A   Clear
1:15 PM 50.0 °F - 21.2 °F 32% 30.06 in 10.0 mi WNW 19.6 mph 26.5 mph N/A   Clear
1:35 PM 51.8 °F - 21.2 °F 30% 30.06 in 10.0 mi WNW 15.0 mph 31.1 mph N/A   Clear
1:55 PM 51.8 °F - 21.2 °F 30% 30.06 in 10.0 mi WNW 17.3 mph 25.3 mph N/A   Clear
2:15 PM 51.8 °F - 21.2 °F 30% 30.05 in 10.0 mi West 20.7 mph 29.9 mph N/A   Clear
2:35 PM 51.8 °F - 21.2 °F 30% 30.05 in 10.0 mi WNW 17.3 mph 26.5 mph N/A   Clear
2:55 PM 51.8 °F - 21.2 °F 30% 30.05 in 10.0 mi West 13.8 mph 27.6 mph N/A   Clear
3:15 PM 53.6 °F - 21.2 °F 28% 30.05 in 10.0 mi WNW 16.1 mph 26.5 mph N/A   Clear
3:35 PM 51.8 °F - 19.4 °F 28% 30.06 in 10.0 mi WNW 12.7 mph 25.3 mph N/A   Clear
3:55 PM 51.8 °F - 21.2 °F 30% 30.06 in 10.0 mi WNW 19.6 mph 25.3 mph N/A   Clear
4:15 PM 51.8 °F - 21.2 °F 30% 30.06 in 10.0 mi West 16.1 mph 24.2 mph N/A   Clear
4:35 PM 51.8 °F - 21.2 °F 30% 30.07 in 10.0 mi WNW 13.8 mph 24.2 mph N/A   Clear
4:55 PM 51.8 °F - 21.2 °F 30% 30.07 in 10.0 mi WNW 11.5 mph 20.7 mph N/A   Clear
5:15 PM 50.0 °F - 21.2 °F 32% 30.07 in 10.0 mi WNW 11.5 mph 17.3 mph N/A   Clear
5:35 PM 50.0 °F - 21.2 °F 32% 30.08 in 10.0 mi West 10.4 mph - N/A   Clear
5:55 PM 46.4 °F 41.9 °F 23.0 °F 40% 30.09 in 10.0 mi West 9.2 mph - N/A   Clear
6:15 PM 46.4 °F 42.9 °F 23.0 °F 40% 30.10 in 10.0 mi West 6.9 mph 16.1 mph N/A   Clear
6:35 PM 46.4 °F 42.9 °F 24.8 °F 43% 30.11 in 10.0 mi West 6.9 mph - N/A   Clear
6:55 PM 44.6 °F 40.2 °F 23.0 °F 43% 30.11 in 10.0 mi West 8.1 mph - N/A   Clear
7:15 PM 44.6 °F 39.7 °F 23.0 °F 43% 30.11 in 10.0 mi West 9.2 mph - N/A   Clear
7:35 PM 44.6 °F 39.7 °F 23.0 °F 43% 30.13 in 10.0 mi WNW 9.2 mph - N/A   Clear
7:55 PM 44.6 °F 40.2 °F 21.2 °F 39% 30.13 in 10.0 mi WNW 8.1 mph - N/A   Clear
8:15 PM 44.6 °F 41.4 °F 21.2 °F 39% 30.14 in 10.0 mi WNW 5.8 mph - N/A   Clear
8:35 PM 44.6 °F 40.2 °F 21.2 °F 39% 30.15 in 10.0 mi WNW 8.1 mph - N/A   Clear
8:55 PM 44.6 °F 39.2 °F 21.2 °F 39% 30.16 in 10.0 mi WNW 10.4 mph - N/A   Clear
9:15 PM 44.6 °F 39.2 °F 21.2 °F 39% 30.16 in 10.0 mi WNW 10.4 mph 16.1 mph N/A   Clear
9:35 PM 44.6 °F 39.2 °F 19.4 °F 37% 30.17 in 10.0 mi WNW 10.4 mph - N/A   Clear
9:55 PM 44.6 °F 39.2 °F 19.4 °F 37% 30.17 in 10.0 mi WNW 10.4 mph 16.1 mph N/A   Clear
10:15 PM 44.6 °F 38.8 °F 19.4 °F 37% 30.18 in 10.0 mi WNW 11.5 mph 20.7 mph N/A   Clear
10:35 PM 44.6 °F 38.8 °F 19.4 °F 37% 30.18 in 10.0 mi WNW 11.5 mph 16.1 mph N/A   Clear
10:55 PM 42.8 °F 37.5 °F 19.4 °F 39% 30.18 in 10.0 mi WNW 9.2 mph - N/A   Clear
11:15 PM 42.8 °F 38.0 °F 19.4 °F 39% 30.18 in 10.0 mi WNW 8.1 mph - N/A   Clear
11:35 PM 41.0 °F 35.8 °F 21.2 °F 45% 30.18 in 10.0 mi WNW 8.1 mph - N/A   Clear
11:55 PM 41.0 °F 36.4 °F 21.2 °F 45% 30.19 in 10.0 mi WNW 6.9 mph - N/A   Clear